Regional Weather Roundup
Issued by NWS

Home | Current Version | Previous Version | Graphics & Text | Print | Product List | Glossary On
Versions: 1 2 3 4 5 6 7 8 9 10 11 12 13 14 15 16 17 18 19 20 21 22 23 24 25 26 27 28 29 30 31 32 33 34 35 36 37 38 39 40 41 42 43 44 45 46 47 48 49 50
000
ASUS43 KMPX 220610
RWRMN
WEATHER ROUNDUP FOR MINNESOTA
NATIONAL WEATHER SERVICE TWIN CITIES/CHANHASSEN MN
100 AM CDT FRI AUG 22 2014


NOTE: "FAIR" INDICATES FEW OR NO CLOUDS BELOW 12,000 FEET WITH NO
SIGNIFICANT WEATHER AND/OR OBSTRUCTIONS TO VISIBILITY. N/A MEANS
CURRENT SKY AND/OR WEATHER CONDITIONS ARE NOT AVAILABLE.

MNZ060>063-068>070-220700-
   Twin Cities Metro

CITY           SKY/WX    TMP DP  RH WIND       PRES   REMARKS
TWIN CITIES    MOCLDY    73  72  96 NW8       29.85R
6HR MIN TEMP:  73; 6HR MAX TEMP:  84;

ST PAUL        FAIR      72  71  97 NW6       29.85S
CRYSTAL        CLOUDY    74  70  87 NW6       29.85S
BLAINE         CLOUDY    72  72 100 NW6       29.86S FOG
LAKEVILLE      MOCLDY    72  72 100 CALM      29.86R FOG
EDEN PRAIRIE   CLOUDY    72  72 100 N9        29.85R FOG
6HR MIN TEMP:  72; 6HR MAX TEMP:  83;

SOUTH ST PAUL  FAIR      74  72  93 N5        29.85S
LAKE ELMO      FAIR      70  70 100 CALM      29.86S FOG
$$
MNZ001>005-007-008-013>017-022>024-027-028-220700-
   Northwest Minnesota

CITY           SKY/WX    TMP DP  RH WIND       PRES   REMARKS
BEMIDJI        CLOUDY    68  66  94 E5        29.91R
HALLOCK        RAIN      66  64  94 NE6       29.90R
ROSEAU         FAIR      66  63  88 E5        29.91S
WARROAD        CLOUDY    68  64  88 E5        29.92S
THIEF RVR FALL CLOUDY    70  66  88 CALM      29.89F
CROOKSTON      MOCLDY    70  70 100 E3        29.89R
FOSSTON        CLOUDY    64  61  88 CALM      29.91R
DETROIT LAKES  FAIR      68  68 100 CALM      29.91S
MOORHEAD       MOCLDY    68  68 100 CALM      29.88S FOG
PARK RAPIDS    CLOUDY    68  67  96 CALM      29.91R
MAHNOMEN       CLOUDY    67  66  99 E8        29.89S
$$
MNZ006-009>011-018-025>026-220700-
   North Central Minnesota

CITY           SKY/WX    TMP DP  RH WIND       PRES   REMARKS
BAUDETTE       CLOUDY    66  63  90 E5        29.91F
FLAG ISLAND    CLOUDY    66  64  94 CALM      29.92R
INTL FALLS     CLOUDY    64  60  87 CALM      29.93R
6HR MIN TEMP:  64; 6HR MAX TEMP:  68;

WASKISH        CLOUDY    66  64  94 CALM      29.92S
BIG FORK       CLOUDY    66  63  88 CALM      29.93S
LONGVILLE      CLOUDY    66  64  94 CALM      29.91S FOG
GRAND RAPIDS   CLOUDY    64  61  88 CALM      29.92R
CRANE LAKE     FAIR      61  59  94 CALM      29.95S
ORR            CLOUDY    63  57  82 CALM      29.91S
COOK           CLOUDY    63  61  94 CALM      29.94S
WALKER         CLOUDY    67  65  96 CALM      29.91S
$$
MNZ012-019>021-037-220700-
   Northeast Minnesota

CITY           SKY/WX    TMP DP  RH WIND       PRES   REMARKS
DULUTH         DRIZZLE   63  61  93 E8        29.91S FOG
6HR MIN TEMP:  63; 6HR MAX TEMP:  63; 6HR PCP: TRACE;

ELY            CLOUDY    63  57  82 E5        29.95S
HIBBING        CLOUDY    66  59  78 NE3       29.92S
EVELETH        RAIN      63  59  88 NE5       29.93S
DULUTH HARBOR  CLOUDY    63  61  94 NE21      29.91S
TWO HARBORS    CLOUDY    61  55  82 NE8       29.91R HAZE
SILVER BAY     CLOUDY    59  59 100 NE7       29.92S
GRAND MARAIS     N/A     61  59  93 NE8       29.95R
G MARAIS ARPRT CLOUDY    61  55  82 E5        29.98S
$$
MNZ029>031-032-039>041-046>048-054>057-064-220700-
   West Central Minnesota

CITY           SKY/WX    TMP DP  RH WIND       PRES   REMARKS
FERGUS FALLS   FAIR      68  66  94 CALM      29.88S FOG
WHEATON        FOG       64  63  94 CALM      29.89F VSB 1/4
MORRIS         FOG       68  66  94 CALM      29.88S VSB 1/4
ALEXANDRIA     FOG       66  65  96 CALM      29.91S VSB 1/4
ELBOW LAKE     FAIR      69  68  98 E3        29.89S
WADENA         CLOUDY    66  66 100 SE5       29.90S FOG
GLENWOOD       MOCLDY    68  66  94 N5        29.90F FOG
APPLETON       FOG       70  66  88 CALM      29.87F VSB 1/4
BENSON         FOG       64  64 100 CALM      29.88S VSB 1/4
ORTONVILLE     FAIR      70  66  88 CALM      29.88F FOG
MADISON        FAIR      70  68  94 CALM      29.88F FOG
WILLMAR        FOG       70  68  94 CALM      29.89F VSB 3/4
$$
MNZ033>034-036-042>043-049>051-058-059-220700-
   Central Minnesota

CITY           SKY/WX    TMP DP  RH WIND       PRES   REMARKS
ST CLOUD       CLOUDY    72  70  93 CALM      29.87F FOG
6HR MIN TEMP:  72; 6HR MAX TEMP:  78;

SAUK CENTRE    FOG       68  67  99 CALM      29.90S VSB 1/4
PAYNESVILLE    CLOUDY    68  68 100 CALM      29.89F FOG
AITKIN         CLOUDY    66  61  82 CALM      29.90R HAZE
PINE RIVER     CLOUDY    66  66 100 CALM      29.94S FOG
BRAINERD       FOG       64  64 100 N5        29.91R VSB 1
STAPLES        CLOUDY    66  66 100 CALM      29.90S FOG
LONG PRAIRIE   CLOUDY    68  68 100 CALM      29.90S FOG
LITTLE FALLS   CLOUDY    66  64  94 CALM      29.89F FOG
LITCHFIELD     CLOUDY    72  72 100 CALM      29.89S FOG
BUFFALO        FAIR      72  69  91 CALM      29.88S
MAPLE LAKE     FAIR      71  70  97 CALM      29.88F FOG
$$
MNZ037-044-045-052-053-220700-
   East Central Minnesota

CITY           SKY/WX    TMP DP  RH WIND       PRES   REMARKS
PRINCETON      CLOUDY    72  70  94 N3        29.88S
MORA           CLOUDY    63  61  94 CALM      29.90S FOG
CAMBRIDGE      CLOUDY    72  63  73 N6        29.86S HAZE
RUSH CITY      CLOUDY    66  64  94 CALM      29.88R
MOOSE LAKE     CLOUDY    61  59  94 CALM      29.88F FOG
HINCKLEY       CLOUDY    63  63 100 N5        29.88F
CLOQUET        DRIZZLE   63  61  94 E6        29.91S
MCGREGOR       CLOUDY    63  61  94 E3        29.91S
$$
MNZ071>073-080-081-089-090-097-098-220700-
   Southwest Minnesota

CITY           SKY/WX    TMP DP  RH WIND       PRES   REMARKS
MONTEVIDEO       N/A     70  66  88 CALM      29.88F FOG
GRANITE FALLS  FAIR      68  68 100 W3        29.89S FOG
CANBY          FAIR      68  67  94 CALM      29.90S
MARSHALL       FAIR      68  64  88 CALM        N/A
REDWOOD FALLS  FOG       73  73 100 CALM      29.87S VSB 1/2
OLIVIA         FOG       70  68  94 CALM      29.87S VSB 1/2
PIPESTONE      FAIR      70  66  88 CALM      29.92S
WINDOM         FAIR      70  66  88 CALM      29.90S
WORTHINGTON    FAIR      68  10  10 N5        29.91S
JACKSON        FAIR      68  64  88 CALM      29.90F
TRACY          FAIR      72  68  89 W3        29.89F
SLAYTON        FAIR      67  66  97 CALM      29.92S
$$
MNZ065>067-074>077-082>085-091>093-220700-
   South Central Minnesota

CITY           SKY/WX    TMP DP  RH WIND       PRES   REMARKS
MANKATO        MOCLDY    75  70  83 CALM      29.87R
NEW ULM        FAIR      72  72 100 CALM      29.88R FOG
ST JAMES       FAIR      72  66  83 CALM      29.89R
FAIRMONT       FAIR      70  64  83 MISG      29.88S
GLENCOE        CLOUDY    72  69  90 CALM      29.87R FOG
FARIBAULT      FAIR      75  70  83 CALM      29.87R
OWATONNA       FAIR      73  72  94 CALM      29.88R
WASECA         FAIR      72  68  88 CALM      29.89S FOG
ALBERT LEA     FAIR      77  73  88 SW3       29.88S
$$
MNZ078>079-086>088-094>096-220700-
   Southeast Minnesota

CITY           SKY/WX    TMP DP  RH WIND       PRES   REMARKS
ROCHESTER      FAIR      73  71  93 S7        29.89S
6HR MIN TEMP:  73; 6HR MAX TEMP:  80;

RED WING       FAIR      77  73  88 CALM      29.84S
STANTON        FAIR      74  71  89 CALM      29.84S
DODGE CENTER   FAIR      75  73  94 SW9       29.88S
WINONA         FAIR      73  70  88 CALM      29.87F
AUSTIN         FAIR      73  72  94 S3        29.88S
PRESTON        FAIR      72  72 100 S6        29.90F
$$
ABBREVIATIONS USED IN REMARKS
   TC - TEMPERATURES IN CELSIUS
  WCI - WIND CHILL INDEX
   HX - HEAT INDEX
  VSB - VISIBILITY
$$


USA.gov is the U.S. government's official web portal to all federal, state and local government web resources and services.